This is the latest recevied weather packets stored in our database for station/object HS5BOG-13. If no packets are shown the sender has not sent any weather packets the latest 10 day(s).
| Time | Temp. | Humidity | Pressure | Rain* | Wind** | Luminosity | Snow |
|---|---|---|---|---|---|---|---|
| 1777701798 | 31.11° C | 49% | 990.5 hPa | - | - | - | - |
| 1777701193 | 31.67° C | 49% | 990.6 hPa | - | - | - | - |
| 1777700587 | 31.67° C | 49% | 990.9 hPa | - | - | - | - |
| 1777699982 | 31.11° C | 51% | 991 hPa | - | - | - | - |
| 1777699376 | 31.11° C | 51% | 991.2 hPa | - | - | - | - |
| 1777698770 | 31.11° C | 52% | 991.3 hPa | - | - | - | - |
| 1777698165 | 31.11° C | 51% | 991.7 hPa | - | - | - | - |
| 1777697559 | 30.56° C | 55% | 991.8 hPa | - | - | - | - |
| 1777696954 | 30.56° C | 55% | 991.9 hPa | - | - | - | - |
| 1777696348 | 30.56° C | 56% | 992.2 hPa | - | - | - | - |
| 1777695743 | 30.56° C | 58% | 992.1 hPa | - | - | - | - |
| 1777695137 | 30.56° C | 59% | 992.4 hPa | - | - | - | - |
| 1777694531 | 30.56° C | 59% | 992.5 hPa | - | - | - | - |
| 1777693926 | 30° C | 61% | 992.8 hPa | - | - | - | - |
| 1777693320 | 30° C | 61% | 993 hPa | - | - | - | - |
| 1777692715 | 30° C | 62% | 993 hPa | - | - | - | - |
| 1777692109 | 29.44° C | 64% | 993.1 hPa | - | - | - | - |
| 1777691503 | 29.44° C | 66% | 993.2 hPa | - | - | - | - |
| 1777690898 | 29.44° C | 66% | 993.2 hPa | - | - | - | - |
| 1777690292 | 29.44° C | 63% | 993.3 hPa | - | - | - | - |
| 1777689687 | 29.44° C | 65% | 993.3 hPa | - | - | - | - |
| 1777689081 | 29.44° C | 64% | 993.4 hPa | - | - | - | - |
| 1777688476 | 29.44° C | 67% | 993.4 hPa | - | - | - | - |
| 1777687870 | 29.44° C | 65% | 993.3 hPa | - | - | - | - |
| 1777687265 | 28.89° C | 64% | 993.4 hPa | - | - | - | - |
* Rain since midnight (hover to see other rain measurements)
** Current wind speed in m/s (hover to see current wind gust speed)